User: anonymous   Login
Location: Carabito
(9.8355°N, 67.9249°W)
Time: 00:09:43
(UTC+00:00)
Language:

NOSS 3 (A) - Orbit

View from above orbital plane
View from above orbital plane
View from above satellite
View from above satellite

Ground track
Ground track

The orbit data is extracted from the following two-line orbital elements,

1 11720U 80019A   21113.09280924 0.00000000  00000-0  00000-0 0    04
2 11720  63.3401 130.7852 0572282  35.8585 324.1415 15.03310802    09
Epoch (UTC): 23 April 2021 02:13:38
Eccentricity: 0.0572282
inclination: 63.3401°
perigee height: 160 km
apogee height: 953 km
right ascension of ascending node: 130.7852°
argument of perigee: 35.8585°
revolutions per day: 15.03310802
mean anomaly at epoch: 324.1415°
orbit number at epoch: 0

The dashed part of the orbit path shows where the satellite is in the earth's shadow,  

DLR